Weather History for Barking Sands, HI

Change the Weather History Date:

Tuesday, February 7, 2012

  Actual Average Record
Temperature  
Mean Temperature - -  
Max Temperature - 80 °F 84 °F (1977)
Min Temperature - 62 °F 58 °F (1951)
Moisture  
Dew Point -    
Average Humidity    
Maximum Humidity    
Minimum Humidity    
Precipitation  
Precipitation 0.40 in - - ()
Sea Level Pressure  
Sea Level Pressure 29.88 in    
Wind  
Wind Speed 13 mph (NW)    
Max Wind Speed 28 mph    
Max Gust Speed 39 mph    
Visibility 8 miles    
Events Rain    
Averages and records for this station are not official NWS values.
T = Trace of Precipitation, MM = Missing Value Source: NWS Daily Summary

Daily Weather History Graph

Daily Weather History Graph

Search for Another Location

Airport:

Trip Planner

Search our weather history database for the weather conditions in past years. The results will help you decide how hot, cold, wet, or windy it might be!

Date:

Astronomy

Feb. 07, 2012 Rise Set
Actual Time 7:14 AM HST 6:31 PM HST
Civil Twilight 6:51 AM HST 6:54 PM HST
Nautical Twilight 6:25 AM HST 7:21 PM HST
Astronomical Twilight 5:58 AM HST 7:47 PM HST
Moon 6:46 PM HST (2/7) 6:56 AM HST (2/7)
Length of Visible Light 12h 03m
Length of Day
11h 16m
Full, 100% of the Moon is Illuminated
Feb 7
Full
Feb 14
Last Quarter
Feb 21
New
Feb 29
First Quarter
Mar 7
Full

Hourly Weather History & Observations

Time (HST) Temp. Dew Point Humidity Pressure Visibility Wind Dir Wind Speed Gust Speed Precip Events Conditions
12:09 AM - - N/A% 29.89 in 10.0 mi ESE 4.6 mph - N/A   Mostly Cloudy
12:56 AM - - N/A% 29.89 in 10.0 mi SE 3.5 mph - N/A   Overcast
1:54 AM - - N/A% 29.87 in 10.0 mi SE 4.6 mph - N/A   Mostly Cloudy
1:56 AM - - N/A% 29.87 in 10.0 mi Calm Calm - N/A   Mostly Cloudy
2:56 AM - - N/A% 29.85 in 10.0 mi Calm Calm - N/A   Partly Cloudy
3:56 AM - - N/A% 29.85 in 10.0 mi SW 8.1 mph - N/A   Partly Cloudy
4:56 AM - - N/A% 29.84 in 10.0 mi SW 11.5 mph - 0.06 in   Mostly Cloudy
5:56 AM - - N/A% 29.84 in 10.0 mi SW 11.5 mph - N/A   Mostly Cloudy
6:56 AM - - N/A% 29.85 in 10.0 mi SW 15.0 mph - N/A   Overcast
7:56 AM - - N/A% 29.86 in 10.0 mi SW 17.3 mph - N/A   Overcast
8:56 AM - - N/A% 29.87 in 10.0 mi SSW 15.0 mph - N/A   Overcast
9:04 AM - - N/A% 29.88 in 1.8 mi West 20.7 mph 39.1 mph 0.11 in Rain Rain
9:11 AM - - N/A% 29.88 in 1.2 mi West 18.4 mph 31.1 mph 0.15 in Rain Rain
9:14 AM - - N/A% 29.88 in 2.5 mi West 20.7 mph 25.3 mph 0.15 in Rain Rain
9:21 AM - - N/A% 29.88 in 6.0 mi NW 16.1 mph 25.3 mph 0.16 in Rain Light Rain
9:41 AM - - N/A% 29.89 in 10.0 mi WNW 16.1 mph - N/A   Overcast
9:56 AM - - N/A% 29.90 in 10.0 mi WNW 12.7 mph - 0.16 in   Overcast
10:56 AM - - N/A% 29.90 in 10.0 mi West 11.5 mph - N/A   Overcast
11:48 AM - - N/A% 29.89 in 4.0 mi NW 16.1 mph - 0.02 in Rain Rain
11:56 AM - - N/A% 29.90 in 3.0 mi NW 17.3 mph - 0.04 in Rain Rain
12:15 PM - - N/A% 29.89 in - NW 18.4 mph - 0.03 in Rain Light Rain
12:22 PM - - N/A% 29.88 in 4.0 mi NW 11.5 mph - 0.04 in Rain Light Rain
12:27 PM - - N/A% 29.88 in 6.2 mi NNW 10.4 mph - 0.04 in Rain Light Rain
12:48 PM - - N/A% 29.87 in 6.2 mi NW 12.7 mph - 0.04 in   Overcast
12:56 PM - - N/A% 29.88 in 3.0 mi WNW 18.4 mph - 0.05 in Rain Rain
12:59 PM - - N/A% 29.87 in 2.5 mi NW 17.3 mph - 0.02 in Rain Rain
1:05 PM - - N/A% 29.87 in - NNW 19.6 mph - 0.03 in Rain Rain
1:13 PM - - N/A% 29.87 in 5.0 mi NNW 17.3 mph - 0.04 in Rain Light Rain
1:34 PM - - N/A% 29.86 in 5.0 mi NNW 16.1 mph 25.3 mph 0.04 in   Unknown
1:45 PM - - N/A% 29.86 in - NNW 23.0 mph 31.1 mph 0.07 in   Unknown
1:50 PM - - N/A% 29.86 in 5.0 mi NNW 19.6 mph 29.9 mph 0.07 in   Unknown
1:58 PM - - N/A% - 7.0 mi NNW 18.4 mph 27.6 mph N/A Rain Light Rain
2:02 PM - - N/A% 29.86 in 6.2 mi NNW 19.6 mph 25.3 mph 0.00 in Rain Light Rain
2:19 PM - - N/A% 29.86 in - NNW 20.7 mph 32.2 mph 0.01 in   Unknown
2:29 PM - - N/A% 29.86 in 6.2 mi NNW 16.1 mph - 0.02 in   Unknown
2:56 PM - - N/A% 29.86 in 10.0 mi North 12.7 mph - 0.02 in   Overcast
3:03 PM - - N/A% 29.85 in 10.0 mi North 11.5 mph - 0.00 in   Overcast
3:43 PM - - N/A% 29.85 in 10.0 mi NNW 20.7 mph - 0.00 in   Overcast
3:56 PM - - N/A% 29.86 in 10.0 mi NW 24.2 mph - 0.00 in   Overcast
4:56 PM - - N/A% 29.88 in 10.0 mi NW 25.3 mph - 0.00 in   Overcast
5:56 PM - - N/A% 29.90 in 10.0 mi NNW 23.0 mph - N/A   Overcast
6:56 PM - - N/A% 29.91 in 10.0 mi NNW 26.5 mph 31.1 mph N/A   Overcast
7:56 PM - - N/A% 29.93 in 10.0 mi NNW 26.5 mph - N/A   Overcast
8:56 PM - - N/A% 29.96 in 10.0 mi NNW 27.6 mph 35.7 mph N/A   Overcast
9:56 PM - - N/A% 29.98 in 10.0 mi NNW 27.6 mph 36.8 mph N/A   Mostly Cloudy
10:56 PM - - N/A% 30.00 in 10.0 mi NNW 21.9 mph 33.4 mph N/A   Mostly Cloudy
11:56 PM - - N/A% 30.00 in 10.0 mi NW 23.0 mph 31.1 mph N/A   Mostly Cloudy